Location: Mauries
(43.6188°N, 0.3322°W)
Time: 12:03:47
(UTC+00:00)

Envisat - Pass Details

Date: 19 March 2026
Orbit: 761 x 762 km, 98.4° (Epoch: 14 April)

Event Time Altitude Azimuth Distance (km) Brightness Sun altitude
Rises 03:31:29 0° 5° (N) 3,234 6.7 -27.8°
Reaches altitude 10° 03:33:56 10° 357° (N) 2,304 5.7 -27.4°
Enters shadow 03:36:42 27° 332° (NNW) 1,444 4.4 -27.0°
